Back to catalog

NOAA 16 DEB

AliveSSO
NORAD 41059·DEBRIS·🇺🇸 United States

Launched Sep 21, 2000 from Vandenberg Space Force Base

Loading…

Next Passes (next 24 hours)

TLE

FreshSource: Space-Track

Epoch: Sep 14, 2026, 10:13 UTC

1 41059U 00055S   26257.42588823  .00000455  00000-0  23312-3 0  9999
2 41059  98.6155 325.8811 0021184  28.6467 331.5869 14.20071100558652

Track NOAA 16 DEB in real time with AllMySat

Download on the App Store